Página principal
METAR-TAF:

METAR-TAF

Aeroportos :

Rasht, Irão

latitude: 37-12N, longitude: 049-38E, altura: -7 m

Observação actual do tempo

O boletim foi feito há 29 minutos, às 02:30 UTC
Vento 6 kt de norte
Temperatura 11°C
Humidade 94%
Pressão 1016 hPa
Visibilidade: 3000 m
Nuvens fragmentadasa uma altura de 600 ft
Poucas nuvensa uma altura de 1500 ft, Cumulonimbus.
Encobertoa uma altura de 7000 ft
chuva

METAR: OIGG 190230Z 36006KT 3000 RA BKN006 FEW015CB OVC070 11/10 Q1016

Hora: 07:29 (02:59 UTC)


TAF: em falta

Observações e previsões do tempo de mais de 4000 aeroportos (mensagens METAR e TAF).

As estações disponíveis são os pontos amarelos e vermelhos sobre o mapa.

Mova o rato sobre o mapa para ver o nome da estação.

Depois clique no ponto para visualizar as observações e previsões meteorológicas.

Para alterar o mapa : clique nos botões verdes com uma cruz preta para aumentar o zoom; no botão verde com uma pitada de zoom; ou nas setas verdes para mapas adjacentes.


METAR-TAF: